• In Hungary
  • List of Countries
  • For 7 days
  • Water Temperature
  • Satellite Maps
  • Weather Map
  • News
  • Weather Widgets
  • user-avatar
    Login

    Hourly Weather Lebyazhsk

    Today, 21 May, Monday

    Time Temperature Precipitation Wind Pressure Humidity
    00:00 +3°C° 0 mm 1 mps 753 mmHg 79%
    01:00 +2°C° 0 mm 1 mps 754 mmHg 82%
    02:00 +2°C° 0 mm 1 mps 754 mmHg 82%
    03:00 +2°C° 0 mm 1 mps 754 mmHg 83%
    04:00 +2°C° 0 mm 1 mps 755 mmHg 84%
    05:00 +4°C° 0 mm 1 mps 755 mmHg 75%
    06:00 +6°C° 0 mm 1 mps 756 mmHg 66%
    07:00 +7°C° 0 mm 1 mps 756 mmHg 57%
    08:00 +10°C° 0 mm 1 mps 756 mmHg 52%
    09:00 +12°C° 0 mm 2 mps 756 mmHg 47%
    10:00 +13°C° 0 mm 2 mps 756 mmHg 43%
    11:00 +14°C° 0 mm 2 mps 756 mmHg 42%
    12:00 +15°C° 0 mm 2 mps 756 mmHg 41%
    13:00 +17°C° 0 mm 2 mps 756 mmHg 40%
    14:00 +17°C° 0 mm 3 mps 756 mmHg 40%
    15:00 +17°C° 0 mm 3 mps 756 mmHg 40%
    16:00 +17°C° 0 mm 3 mps 756 mmHg 40%
    17:00 +17°C° 0 mm 2 mps 756 mmHg 43%
    18:00 +16°C° 0 mm 2 mps 755 mmHg 45%
    19:00 +16°C° 0 mm 2 mps 755 mmHg 48%
    20:00 +15°C° 0 mm 2 mps 755 mmHg 52%
    21:00 +13°C° 0 mm 2 mps 755 mmHg 56%
    22:00 +12°C° 0 mm 2 mps 755 mmHg 59%
    23:00 +12°C° 0 mm 2 mps 755 mmHg 59%

    Tomorrow, 22 May, Tuesday

    Time Temperature Precipitation Wind Pressure Humidity
    00:00 +10°C° 0 mm 3 mps 755 mmHg 59%
    01:00 +10°C° 0 mm 3 mps 755 mmHg 59%
    02:00 +10°C° 0 mm 3 mps 754 mmHg 59%
    03:00 +11°C° 0 mm 4 mps 754 mmHg 59%
    04:00 +11°C° 0 mm 4 mps 754 mmHg 59%
    05:00 +12°C° 0 mm 4 mps 754 mmHg 58%
    06:00 +13°C° 0 mm 4 mps 754 mmHg 56%
    07:00 +14°C° 0 mm 4 mps 754 mmHg 55%
    08:00 +15°C° 0 mm 5 mps 754 mmHg 54%
    09:00 +16°C° 0 mm 5 mps 755 mmHg 52%
    10:00 +16°C° 0 mm 5 mps 755 mmHg 51%
    11:00 +17°C° 0 mm 6 mps 755 mmHg 44%
    12:00 +19°C° 0 mm 6 mps 755 mmHg 37%
    13:00 +20°C° 0 mm 6 mps 756 mmHg 29%
    14:00 +20°C° 0 mm 6 mps 756 mmHg 26%
    15:00 +20°C° 0 mm 6 mps 756 mmHg 23%
    16:00 +20°C° 0 mm 5 mps 757 mmHg 20%
    17:00 +19°C° 0 mm 4 mps 757 mmHg 23%
    18:00 +18°C° 0 mm 3 mps 758 mmHg 25%
    19:00 +17°C° 0 mm 3 mps 758 mmHg 28%
    20:00 +15°C° 0 mm 2 mps 758 mmHg 33%
    21:00 +13°C° 0 mm 1 mps 759 mmHg 39%
    22:00 +10°C° 0 mm 1 mps 759 mmHg 44%
    23:00 +10°C° 0 mm 1 mps 759 mmHg 46%

    Day after tomorrow, 23 May, Wednesday

    Time Temperature Precipitation Wind Pressure Humidity
    00:00 +8°C° 0 mm 0 mps 760 mmHg 47%
    01:00 +7°C° 0 mm 0 mps 760 mmHg 49%
    02:00 +8°C° 0 mm 1 mps 760 mmHg 50%
    03:00 +8°C° 0 mm 1 mps 760 mmHg 50%
    04:00 +8°C° 0 mm 1 mps 760 mmHg 51%
    05:00 +8°C° 0 mm 2 mps 759 mmHg 48%
    06:00 +10°C° 0 mm 2 mps 759 mmHg 45%
    07:00 +12°C° 0 mm 2 mps 758 mmHg 42%
    08:00 +12°C° 0 mm 3 mps 757 mmHg 42%
    09:00 +12°C° 0 mm 3 mps 756 mmHg 42%
    10:00 +13°C° 0 mm 4 mps 756 mmHg 41%
    11:00 +15°C° 0 mm 4 mps 755 mmHg 42%
    12:00 +18°C° 0 mm 4 mps 754 mmHg 43%
    13:00 +20°C° 0 mm 5 mps 753 mmHg 44%
    14:00 +20°C° 0.1 mm 5 mps 753 mmHg 47%
    15:00 +19°C° 0.1 mm 5 mps 752 mmHg 51%
    16:00 +19°C° 0.1 mm 5 mps 752 mmHg 55%
    17:00 +19°C° 0 mm 5 mps 751 mmHg 56%
    18:00 +19°C° 0 mm 5 mps 751 mmHg 56%
    19:00 +19°C° 0 mm 4 mps 750 mmHg 57%
    20:00 +18°C° 0 mm 4 mps 750 mmHg 63%
    21:00 +17°C° 0 mm 4 mps 749 mmHg 69%
    22:00 +14°C° 0 mm 3 mps 749 mmHg 75%
    23:00 +14°C° 0.7 mm 3 mps 748 mmHg 80%

    24 May, Thursday

    Time Temperature Precipitation Wind Pressure Humidity
    00:00 +14°C° 0.7 mm 3 mps 747 mmHg 86%
    01:00 +13°C° 0.7 mm 3 mps 747 mmHg 92%
    02:00 +13°C° 0.4 mm 3 mps 747 mmHg 93%
    03:00 +13°C° 0.4 mm 3 mps 747 mmHg 94%
    04:00 +13°C° 0.4 mm 3 mps 746 mmHg 96%
    05:00 +11°C° 0.2 mm 4 mps 747 mmHg 92%
    06:00 +10°C° 0.2 mm 4 mps 747 mmHg 88%
    07:00 +8°C° 0.2 mm 5 mps 748 mmHg 84%
    08:00 +8°C° 0 mm 5 mps 748 mmHg 77%
    09:00 +10°C° 0 mm 4 mps 749 mmHg 70%
    10:00 +10°C° 0 mm 4 mps 750 mmHg 64%
    11:00 +11°C° 0 mm 4 mps 750 mmHg 55%
    12:00 +12°C° 0 mm 4 mps 750 mmHg 46%
    13:00 +13°C° 0 mm 4 mps 751 mmHg 38%
    14:00 +13°C° 0 mm 4 mps 751 mmHg 36%
    15:00 +13°C° 0 mm 4 mps 751 mmHg 35%
    16:00 +13°C° 0 mm 5 mps 751 mmHg 34%
    17:00 +12°C° 0 mm 4 mps 752 mmHg 36%
    18:00 +11°C° 0 mm 4 mps 752 mmHg 38%
    19:00 +10°C° 0 mm 4 mps 752 mmHg 40%
    20:00 +9°C° 0 mm 3 mps 753 mmHg 44%
    21:00 +8°C° 0 mm 3 mps 753 mmHg 49%
    22:00 +6°C° 0 mm 2 mps 753 mmHg 54%
    23:00 +5°C° 0 mm 2 mps 754 mmHg 58%

    25 May, Friday

    Time Temperature Precipitation Wind Pressure Humidity
    00:00 +4°C° 0 mm 2 mps 754 mmHg 62%
    01:00 +3°C° 0 mm 2 mps 754 mmHg 66%
    02:00 +3°C° 0 mm 2 mps 754 mmHg 69%
    03:00 +3°C° 0 mm 2 mps 754 mmHg 72%
    04:00 +2°C° 0 mm 2 mps 755 mmHg 76%
    05:00 +3°C° 0 mm 2 mps 755 mmHg 70%
    06:00 +3°C° 0 mm 3 mps 755 mmHg 64%
    07:00 +4°C° 0 mm 3 mps 755 mmHg 59%
    08:00 +5°C° 0 mm 4 mps 755 mmHg 54%
    09:00 +6°C° 0 mm 4 mps 755 mmHg 49%
    10:00 +6°C° 0 mm 4 mps 755 mmHg 45%
    11:00 +6°C° 0 mm 4 mps 755 mmHg 43%
    12:00 +7°C° 0 mm 5 mps 755 mmHg 42%
    13:00 +7°C° 0 mm 5 mps 755 mmHg 41%
    14:00 +7°C° 0 mm 5 mps 755 mmHg 40%
    15:00 +7°C° 0 mm 5 mps 755 mmHg 39%
    16:00 +7°C° 0 mm 5 mps 756 mmHg 38%
    17:00 +7°C° 0 mm 5 mps 756 mmHg 39%
    18:00 +6°C° 0 mm 4 mps 756 mmHg 40%
    19:00 +6°C° 0 mm 4 mps 756 mmHg 41%
    20:00 +4°C° 0 mm 3 mps 756 mmHg 46%
    21:00 +3°C° 0 mm 3 mps 757 mmHg 52%
    22:00 +2°C° 0 mm 2 mps 757 mmHg 58%
    23:00 +2°C° 0 mm 2 mps 757 mmHg 61%

    26 May, Saturday

    Time Temperature Precipitation Wind Pressure Humidity
    00:00 +1°C° 0 mm 2 mps 757 mmHg 65%
    01:00 -1°C° 0 mm 2 mps 757 mmHg 69%
    02:00 -1°C° 0 mm 2 mps 757 mmHg 70%
    03:00 -1°C° 0 mm 2 mps 757 mmHg 72%
    04:00 0°C° 0 mm 1 mps 758 mmHg 74%
    05:00 +1°C° 0 mm 2 mps 758 mmHg 65%
    06:00 +3°C° 0 mm 2 mps 757 mmHg 56%
    07:00 +6°C° 0 mm 2 mps 757 mmHg 48%
    08:00 +7°C° 0 mm 2 mps 757 mmHg 46%
    09:00 +8°C° 0 mm 2 mps 757 mmHg 43%
    10:00 +10°C° 0 mm 2 mps 757 mmHg 41%
    11:00 +10°C° 0 mm 2 mps 756 mmHg 42%
    12:00 +10°C° 0 mm 2 mps 756 mmHg 43%
    13:00 +12°C° 0 mm 2 mps 756 mmHg 43%
    14:00 +12°C° 0 mm 2 mps 755 mmHg 43%
    15:00 +12°C° 0 mm 2 mps 755 mmHg 44%
    16:00 +13°C° 0 mm 2 mps 755 mmHg 44%
    17:00 +13°C° 0 mm 2 mps 755 mmHg 46%
    18:00 +13°C° 0 mm 2 mps 754 mmHg 49%
    19:00 +13°C° 0 mm 1 mps 754 mmHg 51%
    20:00 +12°C° 0 mm 2 mps 754 mmHg 56%
    21:00 +9°C° 0 mm 2 mps 754 mmHg 62%
    22:00 +8°C° 0 mm 2 mps 753 mmHg 68%
    23:00 +8°C° 0 mm 2 mps 753 mmHg 68%
    Show more